M I D A S
Marine Information and Data Acquisition System
Tripno 1957 of the Zeeleeuw from 2010-09-15 06:25:38 to 2010-09-15 10:44:20
Back to CruiseResearch ActivitiesStationsMapUnderway DataData graphs

EquipmentUnitsComments
TimeDGPSUTC
LatitudeDGPSDM.mWGS84
LongitudeDGPSDM.mWGS84
SpeedMeteo Stationm/sRelative wind speed
DirectionMeteo StationdegRelative wind direction
TemperatureMeteo Stationdeg CelciusAir temperature
PressureMeteo StationPaAtmospheric pressure
HumidityMeteo Station%Relative humidity
Missing or incorrect values are displayed as -999
Metereological data collected by the RV Zeeleeuw from 2010-09-15 06:11:35 to 2010-09-15 10:53:31
                                                                                    Next 1000 lines
Time Latitude Longitude Speed Direction Temperature Pressure Humidity
2010-09-15 06:11:46 51°13.665 2°55.96 5.3 55 14.7 101150 42
2010-09-15 06:11:51 51°13.665 2°55.961 5.5 38 14.7 101150 43
2010-09-15 06:11:55 51°13.664 2°55.961 4.7 44 14.7 101150 43
2010-09-15 06:12:00 51°13.664 2°55.961 6.5 42 14.7 101150 43
2010-09-15 06:12:05 51°13.664 2°55.961 6.4 60 14.7 101150 43
2010-09-15 06:12:10 51°13.664 2°55.96 6.3 21 14.7 101150 41
2010-09-15 06:12:15 51°13.664 2°55.961 5.7 40 14.7 101150 41
2010-09-15 06:12:19 51°13.664 2°55.96 5.3 44 14.7 101150 43
2010-09-15 06:12:24 51°13.664 2°55.96 5.6 36 14.7 101150 43
2010-09-15 06:12:29 51°13.665 2°55.96 7.4 34 14.7 101150 42
2010-09-15 06:12:34 51°13.665 2°55.959 6.8 32 14.7 101150 42
2010-09-15 06:12:39 51°13.665 2°55.959 6.4 31 14.7 101150 43
2010-09-15 06:12:43 51°13.664 2°55.959 6.6 55 14.7 101150 43
2010-09-15 06:12:48 51°13.664 2°55.959 5.5 20 14.7 101150 43
2010-09-15 06:12:53 51°13.664 2°55.959 5.8 33 14.7 101150 43
2010-09-15 06:12:58 51°13.664 2°55.959 4.9 37 14.7 101150 42
2010-09-15 06:13:03 51°13.664 2°55.959 5.4 39 14.7 101150 42
2010-09-15 06:13:08 51°13.664 2°55.959 5.4 43 14.7 101140 43
2010-09-15 06:13:13 51°13.664 2°55.959 5.1 35 14.7 101140 43
2010-09-15 06:13:17 51°13.664 2°55.959 4.5 43 14.7 101150 42
2010-09-15 06:13:23 51°13.664 2°55.959 6.2 58 14.7 101150 42
2010-09-15 06:13:27 51°13.664 2°55.96 5.2 41 14.7 101150 42
2010-09-15 06:13:32 51°13.664 2°55.96 4.5 37 14.7 101150 42
2010-09-15 06:13:37 51°13.664 2°55.96 3.7 43 14.7 101150 43
2010-09-15 06:13:43 51°13.664 2°55.96 5.5 38 14.7 101150 43
2010-09-15 06:13:47 51°13.664 2°55.96 5.4 36 14.7 101150 42
2010-09-15 06:13:52 51°13.664 2°55.96 5.3 40 14.7 101150 42
2010-09-15 06:13:57 51°13.664 2°55.96 5.7 37 14.7 101150 43
2010-09-15 06:14:02 51°13.664 2°55.959 4.1 51 14.7 101150 43
2010-09-15 06:14:07 51°13.664 2°55.959 6.2 26 14.7 101150 43
2010-09-15 06:14:12 51°13.665 2°55.959 6.5 53 14.7 101150 43
2010-09-15 06:14:17 51°13.665 2°55.959 5.5 23 14.7 101150 43
2010-09-15 06:14:22 51°13.664 2°55.959 5.3 41 14.7 101150 43
2010-09-15 06:14:27 51°13.663 2°55.96 5.1 28 14.7 101160 42
2010-09-15 06:14:32 51°13.663 2°55.959 4.6 41 14.7 101160 42
2010-09-15 06:14:37 51°13.663 2°55.959 4.4 19 14.7 101150 43
2010-09-15 06:14:43 51°13.663 2°55.959 3.9 36 14.7 101150 43
2010-09-15 06:14:47 51°13.663 2°55.959 5.4 25 14.7 101160 41
2010-09-15 06:14:52 51°13.663 2°55.96 4.7 30 14.7 101160 41
2010-09-15 06:14:57 51°13.663 2°55.96 3.9 34 14.7 101150 42
2010-09-15 06:15:03 51°13.663 2°55.96 5.8 43 14.7 101150 42
2010-09-15 06:15:07 51°13.663 2°55.96 5.3 20 14.7 101150 43
2010-09-15 06:15:12 51°13.663 2°55.96 4.6 39 14.7 101150 43
2010-09-15 06:15:18 51°13.663 2°55.96 3.9 40 14.6 101160 42
2010-09-15 06:15:23 51°13.663 2°55.96 4.6 52 14.6 101160 42
2010-09-15 06:15:27 51°13.663 2°55.96 4.7 44 14.7 101150 43
2010-09-15 06:15:31 51°13.663 2°55.961 5.6 28 14.7 101150 43
2010-09-15 06:15:38 51°13.663 2°55.96 7.2 41 14.7 101160 42
2010-09-15 06:15:43 51°13.663 2°55.96 6.2 52 14.7 101160 42
2010-09-15 06:15:47 51°13.662 2°55.96 6.4 37 14.6 101160 42
2010-09-15 06:15:52 51°13.662 2°55.96 5.7 45 14.6 101160 42
2010-09-15 06:15:57 51°13.663 2°55.96 7.5 41 14.6 101160 43
2010-09-15 06:16:03 51°13.663 2°55.959 5 57 14.6 101160 43
2010-09-15 06:16:07 51°13.663 2°55.96 5.1 23 14.6 101160 42
2010-09-15 06:16:13 51°13.662 2°55.96 4.5 51 14.6 101160 42
2010-09-15 06:16:17 51°13.661 2°55.96 7.7 26 14.6 101160 42
2010-09-15 06:16:22 51°13.661 2°55.96 6.6 57 14.6 101160 42
2010-09-15 06:16:27 51°13.661 2°55.96 7.6 26 14.6 101160 42
2010-09-15 06:16:32 51°13.661 2°55.96 5.8 57 14.6 101160 42
2010-09-15 06:16:37 51°13.662 2°55.96 5.5 19 14.6 101160 43
2010-09-15 06:16:43 51°13.662 2°55.96 5.7 41 14.6 101160 43
2010-09-15 06:16:47 51°13.662 2°55.96 6.5 25 14.6 101160 43
2010-09-15 06:16:53 51°13.662 2°55.96 6.5 43 14.6 101160 43
2010-09-15 06:16:57 51°13.662 2°55.959 6.3 44 14.6 101160 43
2010-09-15 06:17:02 51°13.662 2°55.959 6.8 59 14.6 101160 43
2010-09-15 06:17:07 51°13.662 2°55.959 6.2 29 14.6 101160 42
2010-09-15 06:17:11 51°13.662 2°55.959 6.9 41 14.6 101160 42
2010-09-15 06:17:18 51°13.662 2°55.96 7.6 20 14.6 101160 42
2010-09-15 06:17:23 51°13.662 2°55.961 7.2 52 14.6 101160 42
2010-09-15 06:17:27 51°13.663 2°55.962 6.9 23 14.6 101160 42
2010-09-15 06:17:32 51°13.663 2°55.962 7.2 43 14.6 101160 42
2010-09-15 06:17:38 51°13.663 2°55.963 6.8 44 14.6 101160 42
2010-09-15 06:17:43 51°13.663 2°55.963 7.3 41 14.6 101160 42
2010-09-15 06:17:47 51°13.662 2°55.963 6.2 44 14.6 101160 43
2010-09-15 06:17:52 51°13.663 2°55.962 5.2 44 14.6 101160 43
2010-09-15 06:17:57 51°13.663 2°55.962 6.2 19 14.6 101150 42
2010-09-15 06:18:03 51°13.663 2°55.962 5.3 53 14.6 101150 42
2010-09-15 06:18:07 51°13.663 2°55.961 2.2 24 14.6 101160 42
2010-09-15 06:18:12 51°13.663 2°55.962 5.3 54 14.6 101160 42
2010-09-15 06:18:17 51°13.663 2°55.961 4.6 22 14.6 101160 42
2010-09-15 06:18:22 51°13.663 2°55.961 6.8 56 14.6 101160 42
2010-09-15 06:18:27 51°13.663 2°55.962 5.7 29 14.6 101160 42
2010-09-15 06:18:33 51°13.663 2°55.962 6.5 52 14.6 101160 42
2010-09-15 06:18:37 51°13.663 2°55.962 5.5 24 14.6 101160 42
2010-09-15 06:18:42 51°13.663 2°55.962 6.2 57 14.6 101160 42
2010-09-15 06:18:47 51°13.664 2°55.962 5.4 43 14.6 101160 42
2010-09-15 06:18:52 51°13.663 2°55.962 5.6 53 14.6 101160 42
2010-09-15 06:18:57 51°13.662 2°55.962 5.5 22 14.6 101160 42
2010-09-15 06:19:02 51°13.662 2°55.962 6.9 39 14.6 101160 42
2010-09-15 06:19:07 51°13.662 2°55.962 5.2 38 14.6 101160 42
2010-09-15 06:19:12 51°13.662 2°55.962 3.8 53 14.6 101160 42
2010-09-15 06:19:18 51°13.662 2°55.962 6.4 29 14.6 101150 42
2010-09-15 06:19:23 51°13.662 2°55.962 3 60 14.6 101150 42
2010-09-15 06:19:27 51°13.662 2°55.962 4.6 19 14.6 101160 43
2010-09-15 06:19:32 51°13.662 2°55.961 4.9 53 14.6 101160 43
2010-09-15 06:19:37 51°13.662 2°55.96 3.9 29 14.6 101160 42
2010-09-15 06:19:43 51°13.662 2°55.961 3.3 53 14.6 101160 42
2010-09-15 06:19:47 51°13.662 2°55.961 2 23 14.6 101160 43
2010-09-15 06:19:52 51°13.662 2°55.961 3.3 53 14.6 101160 43
2010-09-15 06:19:57 51°13.662 2°55.961 4.3 28 14.6 101160 42
2010-09-15 06:20:03 51°13.662 2°55.961 5.9 57 14.6 101160 42
2010-09-15 06:20:07 51°13.662 2°55.961 6.2 22 14.6 101160 41
2010-09-15 06:20:12 51°13.662 2°55.961 5.4 53 14.6 101160 41
2010-09-15 06:20:17 51°13.662 2°55.961 4.2 25 14.6 101160 43
2010-09-15 06:20:23 51°13.662 2°55.961 5.4 55 14.6 101160 43
2010-09-15 06:20:27 51°13.662 2°55.961 4.2 43 14.6 101150 42
2010-09-15 06:20:33 51°13.662 2°55.961 4 40 14.6 101150 42
2010-09-15 06:20:37 51°13.662 2°55.961 3.1 45 14.6 101160 42
2010-09-15 06:20:42 51°13.662 2°55.961 2.6 51 14.6 101160 42
2010-09-15 06:20:47 51°13.662 2°55.962 4 44 14.6 101160 43
2010-09-15 06:20:52 51°13.661 2°55.962 5.1 59 14.6 101160 43
2010-09-15 06:20:57 51°13.661 2°55.961 5 44 14.6 101150 41
2010-09-15 06:21:02 51°13.662 2°55.961 4.3 41 14.6 101150 41
2010-09-15 06:21:07 51°13.662 2°55.961 4.2 23 14.6 101150 41
2010-09-15 06:21:13 51°13.662 2°55.961 4.5 59 14.6 101150 41
2010-09-15 06:21:17 51°13.663 2°55.961 4.4 37 14.6 101150 43
2010-09-15 06:21:22 51°13.663 2°55.961 2.8 39 14.6 101150 43
2010-09-15 06:21:27 51°13.663 2°55.961 4.2 30 14.6 101160 41
2010-09-15 06:21:32 51°13.663 2°55.961 5.2 53 14.6 101160 41
2010-09-15 06:21:37 51°13.663 2°55.961 5.2 38 14.6 101150 42
2010-09-15 06:21:42 51°13.663 2°55.961 4 39 14.6 101150 42
2010-09-15 06:21:47 51°13.663 2°55.961 5.5 23 14.6 101160 42
2010-09-15 06:21:52 51°13.663 2°55.96 6.5 58 14.6 101160 42
2010-09-15 06:21:57 51°13.663 2°55.96 5.6 40 14.6 101160 42
2010-09-15 06:22:03 51°13.662 2°55.961 4.7 56 14.6 101160 42
2010-09-15 06:22:07 51°13.662 2°55.96 4.9 25 14.6 101150 42
2010-09-15 06:22:12 51°13.662 2°55.96 3.7 58 14.6 101150 42
2010-09-15 06:22:17 51°13.662 2°55.96 5 21 14.6 101160 42
2010-09-15 06:22:23 51°13.662 2°55.961 4.3 52 14.6 101160 42
2010-09-15 06:22:27 51°13.662 2°55.96 6.1 25 14.6 101160 43
2010-09-15 06:22:31 51°13.662 2°55.96 6.2 50 14.6 101160 43
2010-09-15 06:22:37 51°13.662 2°55.96 6.6 23 14.6 101150 43
2010-09-15 06:22:43 51°13.662 2°55.96 6.2 42 14.6 101150 43
2010-09-15 06:22:47 51°13.662 2°55.96 6.3 43 14.6 101150 41
2010-09-15 06:22:53 51°13.662 2°55.96 5.4 52 14.6 101150 41
2010-09-15 06:22:57 51°13.663 2°55.96 4 41 14.6 101150 43
2010-09-15 06:23:02 51°13.662 2°55.96 3.4 44 14.6 101150 43
2010-09-15 06:23:07 51°13.662 2°55.96 3.1 39 14.6 101150 41
2010-09-15 06:23:12 51°13.662 2°55.96 3.6 53 14.6 101150 41
2010-09-15 06:23:17 51°13.662 2°55.96 4 22 14.6 101150 42
2010-09-15 06:23:22 51°13.662 2°55.96 5.3 36 14.6 101150 42
2010-09-15 06:23:27 51°13.662 2°55.96 4.1 39 14.6 101150 42
2010-09-15 06:23:32 51°13.663 2°55.96 3.2 44 14.6 101150 42
2010-09-15 06:23:38 51°13.663 2°55.961 3.1 27 14.6 101150 43
2010-09-15 06:23:43 51°13.663 2°55.962 3.1 35 14.6 101150 43
2010-09-15 06:23:47 51°13.662 2°55.961 3.8 21 14.6 101150 41
2010-09-15 06:23:52 51°13.662 2°55.96 2.9 30 14.6 101150 41
2010-09-15 06:23:57 51°13.662 2°55.96 2.9 23 14.6 101150 41
2010-09-15 06:24:03 51°13.662 2°55.96 5 35 14.6 101150 41
2010-09-15 06:24:07 51°13.662 2°55.961 4.9 38 14.6 101150 42
2010-09-15 06:24:12 51°13.662 2°55.961 4.8 53 14.6 101150 42
2010-09-15 06:24:17 51°13.662 2°55.961 5.3 44 14.6 101150 43
2010-09-15 06:24:23 51°13.661 2°55.96 5.2 51 14.6 101150 43
2010-09-15 06:24:27 51°13.661 2°55.96 6.2 27 14.6 101150 43
2010-09-15 06:24:31 51°13.661 2°55.961 4.8 45 14.6 101150 43
2010-09-15 06:24:37 51°13.661 2°55.96 5 23 14.6 101150 42
2010-09-15 06:24:43 51°13.661 2°55.96 5.7 58 14.6 101150 42
2010-09-15 06:24:47 51°13.661 2°55.96 4.7 27 14.6 101150 41
2010-09-15 06:24:52 51°13.661 2°55.961 4.6 58 14.6 101150 41
2010-09-15 06:24:57 51°13.661 2°55.96 4.2 27 14.6 101160 42
2010-09-15 06:25:03 51°13.661 2°55.96 3.8 52 14.6 101160 42
2010-09-15 06:25:07 51°13.661 2°55.959 5.4 29 14.6 101160 41
2010-09-15 06:25:12 51°13.661 2°55.96 7.5 52 14.6 101160 41
2010-09-15 06:25:17 51°13.661 2°55.96 5.4 26 14.5 101160 42
2010-09-15 06:25:22 51°13.661 2°55.959 4.5 51 14.5 101160 42
2010-09-15 06:25:27 51°13.662 2°55.957 4.1 22 14.6 101150 41
2010-09-15 06:25:33 51°13.662 2°55.953 4.1 51 14.6 101150 41
2010-09-15 06:25:37 51°13.663 2°55.95 5.7 22 14.6 101150 41
2010-09-15 06:25:42 51°13.664 2°55.944 4.3 59 14.6 101150 41
2010-09-15 06:25:48 51°13.666 2°55.937 3.2 26 14.6 101160 42
2010-09-15 06:25:54 51°13.668 2°55.93 3.6 54 14.6 101160 42
2010-09-15 06:25:59 51°13.67 2°55.923 4.6 27 14.6 101160 41
2010-09-15 06:26:05 51°13.672 2°55.914 4.1 56 14.6 101160 41
2010-09-15 06:26:11 51°13.674 2°55.904 3.1 26 14.7 101160 42
2010-09-15 06:26:16 51°13.676 2°55.896 2.9 58 14.7 101160 42
2010-09-15 06:26:21 51°13.678 2°55.887 3.9 26 14.7 101160 43
2010-09-15 06:26:26 51°13.679 2°55.877 3.5 57 14.7 101160 43
2010-09-15 06:26:31 51°13.681 2°55.868 6.1 19 14.8 101160 44
2010-09-15 06:26:36 51°13.683 2°55.859 4.1 54 14.8 101160 44
2010-09-15 06:26:41 51°13.685 2°55.849 6.8 21 14.9 101160 43
2010-09-15 06:26:46 51°13.686 2°55.841 6.6 59 14.9 101160 43
2010-09-15 06:26:51 51°13.688 2°55.832 9.2 21 14.9 101160 43
2010-09-15 06:26:56 51°13.689 2°55.824 6.8 56 14.9 101160 43
2010-09-15 06:27:01 51°13.69 2°55.815 4.6 27 14.9 101150 42
2010-09-15 06:27:06 51°13.691 2°55.806 6.5 55 14.9 101150 42
2010-09-15 06:27:11 51°13.692 2°55.797 3.9 27 14.9 101160 42
2010-09-15 06:27:16 51°13.693 2°55.79 4.7 53 14.9 101160 42
2010-09-15 06:27:21 51°13.693 2°55.782 5.4 25 14.9 101160 41
2010-09-15 06:27:26 51°13.694 2°55.774 4.7 53 14.9 101160 41
2010-09-15 06:27:31 51°13.694 2°55.767 4.7 27 14.9 101160 42
2010-09-15 06:27:36 51°13.694 2°55.76 5.4 52 14.9 101160 42
2010-09-15 06:27:40 51°13.694 2°55.755 3.7 27 14.9 101160 41
2010-09-15 06:27:46 51°13.694 2°55.749 5.6 57 14.9 101160 41
2010-09-15 06:27:51 51°13.694 2°55.745 3.7 22 14.8 101150 42
2010-09-15 06:27:55 51°13.694 2°55.743 3.9 57 14.8 101150 42
2010-09-15 06:28:00 51°13.694 2°55.742 5.6 28 14.8 101150 41
2010-09-15 06:28:05 51°13.695 2°55.743 5.2 53 14.8 101150 41
2010-09-15 06:28:10 51°13.696 2°55.745 5.9 24 14.8 101170 41
2010-09-15 06:28:15 51°13.697 2°55.747 4.3 57 14.8 101170 41
2010-09-15 06:28:19 51°13.698 2°55.749 2.9 266 14.8 101150 41
2010-09-15 06:28:24 51°13.699 2°55.751 2.6 60 14.8 101150 41
2010-09-15 06:28:29 51°13.7 2°55.753 6.2 26 14.8 101170 41
2010-09-15 06:28:34 51°13.7 2°55.754 4.8 304 14.8 101170 41
2010-09-15 06:28:39 51°13.7 2°55.754 5.2 267 14.8 101160 42
2010-09-15 06:28:44 51°13.699 2°55.753 3.8 305 14.8 101160 42
2010-09-15 06:28:49 51°13.698 2°55.752 4.6 255 14.8 101160 42
2010-09-15 06:28:54 51°13.696 2°55.75 5.2 63 14.8 101160 42
2010-09-15 06:28:58 51°13.694 2°55.748 4.8 20 14.7 101160 41
2010-09-15 06:29:04 51°13.691 2°55.746 3.9 54 14.7 101160 41
2010-09-15 06:29:10 51°13.688 2°55.744 4.6 266 14.8 101160 42
2010-09-15 06:29:15 51°13.685 2°55.743 5.7 304 14.8 101160 42
2010-09-15 06:29:21 51°13.684 2°55.742 6.5 32 14.7 101150 41
2010-09-15 06:29:26 51°13.684 2°55.742 4.2 309 14.7 101150 41
2010-09-15 06:29:31 51°13.685 2°55.742 4.3 260 14.7 101160 41
2010-09-15 06:29:36 51°13.687 2°55.743 7.6 311 14.7 101160 41
2010-09-15 06:29:41 51°13.69 2°55.744 6.7 261 14.7 101170 42
2010-09-15 06:29:46 51°13.693 2°55.743 7 304 14.7 101170 42
2010-09-15 06:29:51 51°13.697 2°55.743 4.4 23 14.7 101170 42
2010-09-15 06:29:55 51°13.701 2°55.74 2.8 304 14.7 101170 42
2010-09-15 06:30:00 51°13.705 2°55.738 3.7 23 14.7 101160 42
2010-09-15 06:30:05 51°13.71 2°55.734 3.8 310 14.7 101160 42
2010-09-15 06:30:10 51°13.716 2°55.729 7.4 22 14.7 101160 41
2010-09-15 06:30:15 51°13.722 2°55.724 6 307 14.7 101160 41
2010-09-15 06:30:20 51°13.729 2°55.717 5.8 21 14.7 101150 42
2010-09-15 06:30:25 51°13.737 2°55.711 9.4 311 14.7 101150 42
2010-09-15 06:30:29 51°13.743 2°55.706 8.2 318 14.7 101150 42
2010-09-15 06:30:30 51°13.745 2°55.704 5.1 301 14.7 101150 41
2010-09-15 06:30:30 51°13.745 2°55.704 6.2 307 14.7 101150 42
2010-09-15 06:30:30 51°13.745 2°55.704 4.9 318 14.7 101150 41
2010-09-15 06:30:49 51°13.781 2°55.676 6.1 327 14.7 101150 40
2010-09-15 06:30:54 51°13.792 2°55.666 6.5 325 14.7 101150 40
2010-09-15 06:30:59 51°13.803 2°55.657 7 324 14.7 101150 41
2010-09-15 06:31:04 51°13.815 2°55.648 7.5 304 14.7 101150 41
2010-09-15 06:31:09 51°13.826 2°55.639 7.7 320 14.7 101160 41
2010-09-15 06:31:14 51°13.838 2°55.63 9.3 321 14.7 101160 41
2010-09-15 06:31:18 51°13.847 2°55.623 8.5 321 14.7 101150 42
2010-09-15 06:31:23 51°13.859 2°55.613 6 307 14.7 101150 42
2010-09-15 06:31:28 51°13.871 2°55.604 8.4 21 14.7 101150 42
2010-09-15 06:31:33 51°13.884 2°55.595 7.9 308 14.7 101150 42
2010-09-15 06:31:38 51°13.896 2°55.586 10 315 14.6 101150 41
2010-09-15 06:31:43 51°13.908 2°55.576 8.4 304 14.6 101150 41
2010-09-15 06:31:47 51°13.918 2°55.569 6.5 318 14.6 101150 41
2010-09-15 06:31:52 51°13.93 2°55.561 9 308 14.6 101150 41
2010-09-15 06:31:57 51°13.943 2°55.551 9.4 25 14.6 101150 41
2010-09-15 06:32:02 51°13.956 2°55.542 8.8 306 14.6 101150 41
2010-09-15 06:32:07 51°13.97 2°55.533 5.8 26 14.6 101140 41
2010-09-15 06:32:12 51°13.983 2°55.524 4.8 304 14.6 101140 41
2010-09-15 06:32:17 51°13.997 2°55.515 8.1 315 14.6 101150 42
2010-09-15 06:32:22 51°14.01 2°55.505 6.4 307 14.6 101150 42
2010-09-15 06:32:27 51°14.024 2°55.496 6.7 316 14.6 101150 42
2010-09-15 06:32:32 51°14.038 2°55.486 7.8 306 14.6 101150 42
2010-09-15 06:32:37 51°14.052 2°55.476 8.3 316 14.6 101150 42
2010-09-15 06:32:43 51°14.069 2°55.464 8.1 308 14.6 101150 42
2010-09-15 06:32:47 51°14.08 2°55.456 9.1 318 14.6 101140 41
2010-09-15 06:32:51 51°14.091 2°55.448 11.2 308 14.6 101140 41
2010-09-15 06:32:57 51°14.108 2°55.435 9.8 25 14.6 101150 41
2010-09-15 06:33:03 51°14.125 2°55.422 8.7 307 14.6 101150 41
2010-09-15 06:33:07 51°14.136 2°55.413 11.4 318 14.6 101140 42
2010-09-15 06:33:12 51°14.15 2°55.401 12.1 304 14.6 101140 42
2010-09-15 06:33:17 51°14.164 2°55.389 12.4 28 14.6 101140 42
2010-09-15 06:33:23 51°14.181 2°55.374 13.3 306 14.6 101140 42
2010-09-15 06:33:27 51°14.192 2°55.364 12.9 27 14.6 101140 41
2010-09-15 06:33:33 51°14.209 2°55.347 13.5 305 14.6 101140 41
2010-09-15 06:33:37 51°14.22 2°55.336 13 22 14.7 101130 42
2010-09-15 06:33:43 51°14.237 2°55.32 13 306 14.7 101130 42
2010-09-15 06:33:47 51°14.248 2°55.309 12.1 23 14.6 101120 42
2010-09-15 06:33:53 51°14.265 2°55.292 11.5 306 14.6 101120 42
2010-09-15 06:33:58 51°14.279 2°55.278 12.4 21 14.6 101120 41
2010-09-15 06:34:03 51°14.293 2°55.264 11.9 303 14.6 101120 41
2010-09-15 06:34:07 51°14.305 2°55.252 12.1 315 14.6 101130 42
2010-09-15 06:34:12 51°14.32 2°55.239 14.5 306 14.6 101130 42
2010-09-15 06:34:17 51°14.334 2°55.227 13.3 25 14.7 101130 43
2010-09-15 06:34:23 51°14.352 2°55.214 12.8 306 14.7 101130 43
2010-09-15 06:34:27 51°14.364 2°55.205 12.3 20 14.7 101120 42
2010-09-15 06:34:32 51°14.378 2°55.192 14.3 303 14.7 101120 42
2010-09-15 06:34:37 51°14.392 2°55.179 15 25 14.7 101110 42
2010-09-15 06:34:42 51°14.406 2°55.166 12.7 305 14.7 101110 42
2010-09-15 06:34:47 51°14.42 2°55.152 13.9 21 14.7 101110 43
2010-09-15 06:34:52 51°14.434 2°55.138 13.6 311 14.7 101110 43
2010-09-15 06:34:58 51°14.45 2°55.121 13.3 23 14.7 101100 42
2010-09-15 06:35:03 51°14.464 2°55.105 13.4 304 14.7 101100 42
2010-09-15 06:35:07 51°14.475 2°55.093 15 22 14.7 101110 42
2010-09-15 06:35:12 51°14.489 2°55.077 13.1 307 14.7 101110 42
2010-09-15 06:35:18 51°14.505 2°55.057 13.5 22 14.7 101100 42
2010-09-15 06:35:23 51°14.518 2°55.041 12.2 305 14.7 101100 42
2010-09-15 06:35:27 51°14.53 2°55.028 13.1 27 14.6 101100 42
2010-09-15 06:35:32 51°14.543 2°55.011 13.4 309 14.6 101100 42
2010-09-15 06:35:37 51°14.556 2°54.994 15.4 316 14.6 101100 42
2010-09-15 06:35:43 51°14.573 2°54.974 15.5 305 14.6 101100 42
2010-09-15 06:35:47 51°14.585 2°54.961 13.2 20 14.7 101080 43
2010-09-15 06:35:52 51°14.6 2°54.947 13 307 14.7 101080 43
2010-09-15 06:35:57 51°14.615 2°54.931 13.6 318 14.7 101110 43
2010-09-15 06:36:03 51°14.634 2°54.914 13.9 305 14.7 101110 43
2010-09-15 06:36:07 51°14.647 2°54.903 13.8 317 14.7 101100 41
2010-09-15 06:36:11 51°14.659 2°54.893 14.3 306 14.7 101100 41
2010-09-15 06:36:17 51°14.678 2°54.876 14 316 14.7 101090 42
2010-09-15 06:36:23 51°14.697 2°54.859 13.5 302 14.7 101090 42
2010-09-15 06:36:27 51°14.709 2°54.848 13.3 316 14.7 101110 43
2010-09-15 06:36:32 51°14.724 2°54.834 12.6 305 14.7 101110 43
2010-09-15 06:36:37 51°14.74 2°54.82 13.1 318 14.7 101090 42
2010-09-15 06:36:42 51°14.755 2°54.806 12.6 302 14.7 101090 42
2010-09-15 06:36:47 51°14.769 2°54.792 13.9 316 14.7 101110 42
2010-09-15 06:36:52 51°14.785 2°54.778 14.6 308 14.7 101110 42
2010-09-15 06:36:57 51°14.8 2°54.764 12.3 23 14.7 101120 42
2010-09-15 06:37:03 51°14.819 2°54.747 14.6 302 14.7 101120 42
2010-09-15 06:37:07 51°14.831 2°54.735 12.5 316 14.7 101110 42
2010-09-15 06:37:12 51°14.847 2°54.721 14.5 305 14.7 101110 42
2010-09-15 06:37:17 51°14.862 2°54.706 14.4 22 14.7 101110 42
2010-09-15 06:37:23 51°14.881 2°54.689 16.1 304 14.7 101110 42
2010-09-15 06:37:27 51°14.893 2°54.678 14.6 21 14.7 101110 42
2010-09-15 06:37:32 51°14.909 2°54.664 14.8 308 14.7 101110 42
2010-09-15 06:37:37 51°14.925 2°54.65 17.6 22 14.7 101120 42
2010-09-15 06:37:43 51°14.942 2°54.632 13.5 303 14.7 101120 42
2010-09-15 06:37:47 51°14.955 2°54.62 14.7 22 14.7 101100 42
2010-09-15 06:37:51 51°14.967 2°54.608 14 304 14.7 101100 42
2010-09-15 06:37:57 51°14.985 2°54.589 14.4 26 14.7 101100 42
2010-09-15 06:38:03 51°15.002 2°54.571 14.7 304 14.7 101100 42
2010-09-15 06:38:07 51°15.014 2°54.557 12.9 27 14.8 101090 43
2010-09-15 06:38:12 51°15.029 2°54.542 14 307 14.8 101090 43
2010-09-15 06:38:17 51°15.044 2°54.525 14.1 318 14.8 101100 43
2010-09-15 06:38:23 51°15.061 2°54.506 15.4 308 14.8 101100 43
2010-09-15 06:38:27 51°15.073 2°54.493 13.4 316 14.8 101110 43
2010-09-15 06:38:31 51°15.085 2°54.48 15.2 306 14.8 101110 43
2010-09-15 06:38:37 51°15.103 2°54.46 12.7 22 14.8 101100 43
2010-09-15 06:38:42 51°15.117 2°54.445 14.9 305 14.8 101100 43
2010-09-15 06:38:47 51°15.132 2°54.428 15.7 316 14.8 101100 41
2010-09-15 06:38:53 51°15.149 2°54.408 15.2 304 14.8 101100 41
2010-09-15 06:38:57 51°15.161 2°54.396 15.1 315 14.8 101100 42
2010-09-15 06:39:02 51°15.176 2°54.379 14.2 308 14.8 101100 42
2010-09-15 06:39:07 51°15.191 2°54.363 14.7 316 14.8 101120 43
2010-09-15 06:39:12 51°15.205 2°54.346 15.4 306 14.8 101120 43
2010-09-15 06:39:17 51°15.22 2°54.33 14.7 317 14.8 101090 42
2010-09-15 06:39:22 51°15.234 2°54.313 12.9 307 14.8 101090 42
2010-09-15 06:39:27 51°15.249 2°54.296 13.4 317 14.7 101100 42
2010-09-15 06:39:31 51°15.261 2°54.283 14.7 307 14.7 101100 42
2010-09-15 06:39:37 51°15.278 2°54.263 15.4 23 14.7 101090 42
2010-09-15 06:39:43 51°15.295 2°54.242 12.3 307 14.7 101090 42
2010-09-15 06:39:47 51°15.306 2°54.229 14.8 23 14.7 101100 43
2010-09-15 06:39:52 51°15.321 2°54.211 13.7 302 14.7 101100 43
2010-09-15 06:39:57 51°15.335 2°54.195 14.2 22 14.7 101100 42
2010-09-15 06:40:03 51°15.352 2°54.174 13.2 305 14.7 101100 42
2010-09-15 06:40:07 51°15.363 2°54.16 14.9 315 14.7 101090 43
2010-09-15 06:40:12 51°15.377 2°54.143 13.8 308 14.7 101090 43
2010-09-15 06:40:17 51°15.391 2°54.126 12.3 317 14.7 101100 43
2010-09-15 06:40:23 51°15.407 2°54.103 14.4 304 14.7 101100 43
2010-09-15 06:40:27 51°15.418 2°54.088 13.3 318 14.7 101100 43
2010-09-15 06:40:32 51°15.43 2°54.069 13 304 14.7 101100 43
2010-09-15 06:40:37 51°15.443 2°54.049 14.4 321 14.7 101100 43
2010-09-15 06:40:42 51°15.456 2°54.03 13.4 305 14.7 101100 43
2010-09-15 06:40:47 51°15.469 2°54.011 13.4 320 14.8 101110 43
2010-09-15 06:40:52 51°15.482 2°53.991 13.1 303 14.8 101110 43
2010-09-15 06:40:56 51°15.492 2°53.976 13.5 319 14.8 101120 43
2010-09-15 06:41:02 51°15.508 2°53.953 13.1 303 14.8 101120 43
2010-09-15 06:41:08 51°15.524 2°53.93 14 320 14.8 101110 43
2010-09-15 06:41:12 51°15.535 2°53.915 14.2 307 14.8 101110 43
2010-09-15 06:41:17 51°15.549 2°53.897 12.6 317 14.8 101120 43
2010-09-15 06:41:22 51°15.562 2°53.879 14.4 306 14.8 101120 43
2010-09-15 06:41:27 51°15.576 2°53.86 13.6 318 14.8 101110 42
2010-09-15 06:41:32 51°15.59 2°53.842 13.9 307 14.8 101110 42
2010-09-15 06:41:37 51°15.604 2°53.823 12.8 320 14.8 101110 42
2010-09-15 06:41:43 51°15.62 2°53.801 13.7 304 14.8 101110 42
2010-09-15 06:41:47 51°15.631 2°53.786 14 322 14.8 101090 43
2010-09-15 06:41:52 51°15.645 2°53.767 13.4 305 14.8 101090 43
2010-09-15 06:41:57 51°15.659 2°53.749 16 320 14.8 101100 44
2010-09-15 06:42:02 51°15.672 2°53.731 14 301 14.8 101100 44
2010-09-15 06:42:07 51°15.686 2°53.713 15.1 323 14.9 101110 44
2010-09-15 06:42:12 51°15.7 2°53.696 13.7 304 14.9 101110 44
2010-09-15 06:42:17 51°15.714 2°53.677 15.2 322 14.8 101100 42
2010-09-15 06:42:22 51°15.729 2°53.659 14 282 14.8 101100 42
2010-09-15 06:42:27 51°15.742 2°53.641 14.3 324 14.8 101120 43
2010-09-15 06:42:32 51°15.756 2°53.623 14.1 305 14.8 101120 43
2010-09-15 06:42:37 51°15.77 2°53.604 14.4 321 14.7 101110 42
2010-09-15 06:42:42 51°15.784 2°53.586 12.5 305 14.7 101110 42
2010-09-15 06:42:48 51°15.8 2°53.564 13.4 323 14.7 101120 41
2010-09-15 06:42:52 51°15.811 2°53.55 13.6 303 14.7 101120 41
2010-09-15 06:42:57 51°15.825 2°53.532 13.3 323 14.7 101110 41
2010-09-15 06:43:02 51°15.839 2°53.514 15.2 306 14.7 101110 41
2010-09-15 06:43:07 51°15.853 2°53.496 14.4 324 14.7 101120 42
2010-09-15 06:43:12 51°15.868 2°53.48 14.7 323 14.7 101120 42
2010-09-15 06:43:17 51°15.883 2°53.463 14 323 14.7 101110 41
2010-09-15 06:43:22 51°15.897 2°53.447 13.5 282 14.7 101110 41
2010-09-15 06:43:27 51°15.912 2°53.43 13.7 321 14.7 101110 42
2010-09-15 06:43:32 51°15.927 2°53.414 13 305 14.7 101110 42
2010-09-15 06:43:37 51°15.942 2°53.398 13.4 320 14.7 101110 41
2010-09-15 06:43:42 51°15.958 2°53.382 12.9 305 14.7 101110 41
2010-09-15 06:43:47 51°15.972 2°53.366 14.9 321 14.6 101100 41
2010-09-15 06:43:52 51°15.988 2°53.351 15.2 308 14.6 101100 41
2010-09-15 06:43:57 51°16.003 2°53.335 13.2 319 14.7 101110 41
2010-09-15 06:44:02 51°16.018 2°53.32 13.8 304 14.7 101110 41
2010-09-15 06:44:07 51°16.034 2°53.305 12.8 318 14.7 101100 40
2010-09-15 06:44:12 51°16.048 2°53.289 15.3 303 14.7 101100 40
2010-09-15 06:44:17 51°16.063 2°53.274 15.1 321 14.7 101100 41
2010-09-15 06:44:22 51°16.078 2°53.259 12.9 285 14.7 101100 41
2010-09-15 06:44:27 51°16.092 2°53.245 14.3 322 14.7 101110 41
2010-09-15 06:44:32 51°16.107 2°53.231 13.2 303 14.7 101110 41
2010-09-15 06:44:37 51°16.121 2°53.217 13.3 319 14.7 101100 42
2010-09-15 06:44:43 51°16.138 2°53.2 14.2 305 14.7 101100 42
2010-09-15 06:44:48 51°16.153 2°53.186 14.3 321 14.7 101110 41
2010-09-15 06:44:52 51°16.164 2°53.174 14.4 303 14.7 101110 41
2010-09-15 06:44:57 51°16.179 2°53.159 14.3 319 14.7 101120 41
2010-09-15 06:45:03 51°16.197 2°53.141 13.6 307 14.7 101120 41
2010-09-15 06:45:07 51°16.209 2°53.129 14.3 317 14.7 101100 42
2010-09-15 06:45:12 51°16.224 2°53.114 15.1 305 14.7 101100 42
2010-09-15 06:45:17 51°16.239 2°53.099 13.4 317 14.7 101090 41
2010-09-15 06:45:22 51°16.254 2°53.084 13.7 302 14.7 101090 41
2010-09-15 06:45:27 51°16.269 2°53.069 13.5 317 14.7 101110 40
2010-09-15 06:45:32 51°16.284 2°53.055 12.8 307 14.7 101110 40
2010-09-15 06:45:37 51°16.3 2°53.039 14.1 317 14.7 101110 41
2010-09-15 06:45:42 51°16.316 2°53.025 10.7 302 14.7 101110 41
2010-09-15 06:45:47 51°16.332 2°53.011 14.3 318 14.7 101100 41
2010-09-15 06:45:52 51°16.348 2°52.998 13.8 309 14.7 101100 41
2010-09-15 06:45:57 51°16.364 2°52.984 12.6 317 14.7 101100 40
2010-09-15 06:46:02 51°16.38 2°52.972 14.1 301 14.7 101100 40
2010-09-15 06:46:07 51°16.396 2°52.958 13.9 316 14.7 101100 42
2010-09-15 06:46:12 51°16.413 2°52.945 12.9 303 14.7 101100 42
2010-09-15 06:46:17 51°16.428 2°52.932 14.1 318 14.7 101120 40
2010-09-15 06:46:22 51°16.444 2°52.917 13.8 283 14.7 101120 40
2010-09-15 06:46:27 51°16.461 2°52.905 12.6 317 14.7 101110 40
2010-09-15 06:46:32 51°16.477 2°52.892 13.6 309 14.7 101110 40
2010-09-15 06:46:37 51°16.493 2°52.879 13.5 319 14.7 101110 42
2010-09-15 06:46:42 51°16.509 2°52.865 12.5 303 14.7 101110 42
2010-09-15 06:46:47 51°16.525 2°52.852 13.2 320 14.7 101100 40
2010-09-15 06:46:52 51°16.541 2°52.84 14.3 303 14.7 101100 40
2010-09-15 06:46:57 51°16.558 2°52.827 13.8 318 14.7 101110 41
2010-09-15 06:47:02 51°16.575 2°52.816 13.3 304 14.7 101110 41
2010-09-15 06:47:07 51°16.591 2°52.804 13.1 317 14.8 101100 41
2010-09-15 06:47:12 51°16.608 2°52.794 13.7 304 14.8 101100 41
2010-09-15 06:47:17 51°16.625 2°52.782 13.4 25 14.7 101120 41
2010-09-15 06:47:23 51°16.646 2°52.77 14.3 282 14.7 101120 41
2010-09-15 06:47:27 51°16.659 2°52.76 12.9 25 14.7 101100 41
2010-09-15 06:47:32 51°16.676 2°52.748 12 309 14.7 101100 41
2010-09-15 06:47:37 51°16.693 2°52.738 11.8 22 14.7 101110 41
2010-09-15 06:47:42 51°16.71 2°52.727 12.5 308 14.7 101110 41
2010-09-15 06:47:48 51°16.73 2°52.713 13.2 21 14.8 101110 41
2010-09-15 06:47:52 51°16.743 2°52.704 13.4 305 14.8 101110 41
2010-09-15 06:47:57 51°16.761 2°52.694 13 25 14.8 101110 41
2010-09-15 06:48:02 51°16.777 2°52.681 14.4 302 14.8 101110 41
2010-09-15 06:48:07 51°16.794 2°52.671 13.3 22 14.8 101110 42
2010-09-15 06:48:12 51°16.811 2°52.659 13.2 305 14.8 101110 42
2010-09-15 06:48:17 51°16.828 2°52.648 12.3 25 14.8 101090 43
2010-09-15 06:48:22 51°16.845 2°52.637 14.7 282 14.8 101090 43
2010-09-15 06:48:27 51°16.862 2°52.627 13.2 21 14.8 101100 43
2010-09-15 06:48:32 51°16.878 2°52.616 11.9 311 14.8 101100 43
2010-09-15 06:48:37 51°16.895 2°52.603 13.9 316 14.9 101100 43
2010-09-15 06:48:42 51°16.911 2°52.592 14.2 307 14.9 101100 43
2010-09-15 06:48:47 51°16.928 2°52.58 13.2 22 14.9 101100 42
2010-09-15 06:48:52 51°16.945 2°52.569 13.6 307 14.9 101100 42
2010-09-15 06:48:57 51°16.962 2°52.556 13.1 22 14.9 101110 43
2010-09-15 06:49:02 51°16.979 2°52.544 13.6 307 14.9 101110 43
2010-09-15 06:49:07 51°16.995 2°52.532 14.1 22 14.9 101090 42
2010-09-15 06:49:12 51°17.012 2°52.522 13.4 301 14.9 101090 42
2010-09-15 06:49:17 51°17.029 2°52.509 11.9 25 14.8 101110 42
2010-09-15 06:49:23 51°17.049 2°52.496 13.1 307 14.8 101110 42
2010-09-15 06:49:27 51°17.063 2°52.486 12.5 24 14.8 101110 42
2010-09-15 06:49:32 51°17.08 2°52.475 13.5 305 14.8 101110 42
2010-09-15 06:49:37 51°17.097 2°52.464 14.5 23 14.8 101110 43
2010-09-15 06:49:42 51°17.114 2°52.452 13.2 307 14.8 101110 43
2010-09-15 06:49:48 51°17.134 2°52.439 11.7 25 14.8 101110 43
2010-09-15 06:49:52 51°17.148 2°52.432 13 308 14.8 101110 43
2010-09-15 06:49:57 51°17.167 2°52.424 11.8 24 14.8 101110 42
2010-09-15 06:50:03 51°17.188 2°52.415 10.4 306 14.8 101110 42
2010-09-15 06:50:08 51°17.207 2°52.409 11.9 21 14.8 101090 43
2010-09-15 06:50:12 51°17.221 2°52.403 10.4 302 14.8 101090 43
2010-09-15 06:50:17 51°17.24 2°52.398 11.5 21 14.8 101110 43
2010-09-15 06:50:22 51°17.258 2°52.394 13 306 14.8 101110 43
2010-09-15 06:50:27 51°17.277 2°52.389 13.8 21 14.8 101100 42
2010-09-15 06:50:32 51°17.296 2°52.385 14.6 307 14.8 101100 42
2010-09-15 06:50:37 51°17.314 2°52.379 14 21 14.8 101110 43
2010-09-15 06:50:42 51°17.333 2°52.377 10.9 308 14.8 101110 43
2010-09-15 06:50:47 51°17.351 2°52.37 14.1 24 14.8 101110 43
2010-09-15 06:50:52 51°17.37 2°52.367 14.2 309 14.8 101110 43
2010-09-15 06:50:57 51°17.388 2°52.361 11.9 24 14.8 101090 43
2010-09-15 06:51:02 51°17.407 2°52.359 14.1 303 14.8 101090 43
2010-09-15 06:51:07 51°17.425 2°52.355 13.6 25 14.8 101100 43
2010-09-15 06:51:12 51°17.444 2°52.35 11 306 14.8 101100 43
2010-09-15 06:51:17 51°17.462 2°52.348 13 26 14.8 101090 43
2010-09-15 06:51:22 51°17.48 2°52.344 12.3 304 14.8 101090 43
2010-09-15 06:51:27 51°17.499 2°52.341 12.9 25 14.8 101100 42
2010-09-15 06:51:32 51°17.518 2°52.337 14.7 304 14.8 101100 42
2010-09-15 06:51:37 51°17.536 2°52.332 12.2 28 14.8 101090 43
2010-09-15 06:51:42 51°17.555 2°52.329 14.3 305 14.8 101090 43
2010-09-15 06:51:48 51°17.577 2°52.324 14.2 21 14.8 101110 43
2010-09-15 06:51:52 51°17.592 2°52.32 14.1 305 14.8 101110 43
2010-09-15 06:51:57 51°17.611 2°52.318 15.4 23 14.8 101100 43
2010-09-15 06:52:02 51°17.629 2°52.312 12.4 308 14.8 101100 43
2010-09-15 06:52:07 51°17.648 2°52.307 13.9 25 14.8 101090 41
2010-09-15 06:52:12 51°17.666 2°52.302 13.5 305 14.8 101090 41
2010-09-15 06:52:17 51°17.685 2°52.298 12.2 26 14.8 101110 42
2010-09-15 06:52:22 51°17.703 2°52.295 13.8 307 14.8 101110 42
2010-09-15 06:52:28 51°17.726 2°52.29 14.1 22 14.7 101100 42
2010-09-15 06:52:32 51°17.741 2°52.29 12.7 303 14.7 101100 42
2010-09-15 06:52:37 51°17.76 2°52.287 12.5 21 14.8 101090 42
2010-09-15 06:52:42 51°17.779 2°52.287 12.5 307 14.8 101090 42
2010-09-15 06:52:47 51°17.797 2°52.287 11.3 23 14.8 101120 42
2010-09-15 06:52:52 51°17.816 2°52.285 11.5 308 14.8 101120 42
2010-09-15 06:52:57 51°17.835 2°52.287 12.3 23 14.8 101100 43
2010-09-15 06:53:02 51°17.854 2°52.285 12.8 310 14.8 101100 43
2010-09-15 06:53:07 51°17.872 2°52.287 11.9 24 14.8 101120 43
2010-09-15 06:53:12 51°17.891 2°52.288 12.4 304 14.8 101120 43
2010-09-15 06:53:16 51°17.906 2°52.288 11.7 24 14.8 101120 43
2010-09-15 06:53:22 51°17.929 2°52.294 11.4 285 14.8 101120 43
2010-09-15 06:53:27 51°17.948 2°52.296 10 23 14.7 101100 42
2010-09-15 06:53:32 51°17.967 2°52.301 9.4 310 14.7 101100 42
2010-09-15 06:53:36 51°17.982 2°52.305 9.7 20 14.7 101130 43
2010-09-15 06:53:42 51°18.005 2°52.309 9.7 305 14.7 101130 43
2010-09-15 06:53:47 51°18.023 2°52.317 9.6 28 14.7 101110 43
2010-09-15 06:53:52 51°18.042 2°52.322 9.8 303 14.7 101110 43
2010-09-15 06:53:57 51°18.061 2°52.326 9.3 245 14.7 101120 42
2010-09-15 06:54:02 51°18.079 2°52.334 10.4 302 14.7 101120 42
2010-09-15 06:54:07 51°18.098 2°52.336 10.3 245 14.7 101110 43
2010-09-15 06:54:12 51°18.117 2°52.339 10.7 305 14.7 101110 43
2010-09-15 06:54:17 51°18.136 2°52.346 9.9 23 14.7 101110 43
2010-09-15 06:54:22 51°18.155 2°52.349 9.8 308 14.7 101110 43
2010-09-15 06:54:28 51°18.178 2°52.357 10.3 25 14.8 101120 42
2010-09-15 06:54:32 51°18.193 2°52.361 11.4 307 14.8 101120 42
2010-09-15 06:54:37 51°18.211 2°52.365 9.9 25 14.8 101120 43
2010-09-15 06:54:42 51°18.231 2°52.373 13 307 14.8 101120 43
2010-09-15 06:54:48 51°18.254 2°52.377 12.6 25 14.8 101120 42
2010-09-15 06:54:52 51°18.269 2°52.383 11.7 310 14.8 101120 42
2010-09-15 06:54:57 51°18.288 2°52.388 12.2 19 14.8 101120 43
2010-09-15 06:55:02 51°18.307 2°52.394 10.6 305 14.8 101120 43
2010-09-15 06:55:07 51°18.325 2°52.403 11 24 14.8 101110 43
2010-09-15 06:55:12 51°18.345 2°52.406 10.1 304 14.8 101110 43
2010-09-15 06:55:17 51°18.364 2°52.411 10.9 27 14.8 101110 44
2010-09-15 06:55:22 51°18.383 2°52.418 11.9 302 14.8 101110 44
2010-09-15 06:55:27 51°18.402 2°52.42 12.1 28 14.8 101110 43
2010-09-15 06:55:32 51°18.421 2°52.425 10.4 308 14.8 101110 43
2010-09-15 06:55:37 51°18.44 2°52.43 10.3 23 14.8 101120 43
2010-09-15 06:55:43 51°18.462 2°52.436 11.9 307 14.8 101120 43
2010-09-15 06:55:47 51°18.477 2°52.442 10.3 23 14.8 101100 43
2010-09-15 06:55:52 51°18.496 2°52.446 11.7 305 14.8 101100 43
2010-09-15 06:55:57 51°18.515 2°52.453 12.2 24 14.7 101100 42
2010-09-15 06:56:02 51°18.534 2°52.459 12 304 14.7 101100 42
2010-09-15 06:56:07 51°18.553 2°52.464 10.7 25 14.7 101110 42
2010-09-15 06:56:12 51°18.571 2°52.472 12.5 302 14.7 101110 42
2010-09-15 06:56:17 51°18.591 2°52.476 13.4 24 14.7 101090 42
2010-09-15 06:56:22 51°18.609 2°52.483 12.8 303 14.7 101090 42
2010-09-15 06:56:28 51°18.632 2°52.492 13.2 28 14.7 101110 43
2010-09-15 06:56:32 51°18.647 2°52.495 12.3 307 14.7 101110 43
2010-09-15 06:56:36 51°18.662 2°52.499 11.8 28 14.7 101110 43
2010-09-15 06:56:42 51°18.684 2°52.508 13.4 306 14.7 101110 43
2010-09-15 06:56:48 51°18.706 2°52.513 11.2 24 14.7 101100 43
2010-09-15 06:56:52 51°18.721 2°52.52 13.2 303 14.7 101100 43
2010-09-15 06:56:56 51°18.736 2°52.522 11.7 28 14.7 101110 43
2010-09-15 06:57:02 51°18.759 2°52.532 12.3 301 14.7 101110 43
2010-09-15 06:57:07 51°18.778 2°52.537 11.2 23 14.7 101100 43
2010-09-15 06:57:12 51°18.797 2°52.544 12.2 309 14.7 101100 43
2010-09-15 06:57:17 51°18.816 2°52.548 11.1 25 14.7 101100 43
2010-09-15 06:57:22 51°18.834 2°52.556 12.4 286 14.7 101100 43
2010-09-15 06:57:27 51°18.853 2°52.56 11.7 24 14.7 101100 41
2010-09-15 06:57:32 51°18.872 2°52.568 13.3 304 14.7 101100 41
2010-09-15 06:57:37 51°18.891 2°52.571 10.2 25 14.7 101110 43
2010-09-15 06:57:42 51°18.91 2°52.577 12.6 302 14.7 101110 43
2010-09-15 06:57:47 51°18.929 2°52.581 10.2 24 14.7 101110 43
2010-09-15 06:57:52 51°18.947 2°52.589 11.9 310 14.7 101110 43
2010-09-15 06:57:56 51°18.963 2°52.591 11.2 21 14.7 101110 42
2010-09-15 06:58:02 51°18.986 2°52.599 12.5 307 14.7 101110 42
2010-09-15 06:58:08 51°19.008 2°52.607 9.9 245 14.7 101110 43
2010-09-15 06:58:12 51°19.024 2°52.609 10.3 306 14.7 101110 43
2010-09-15 06:58:16 51°19.039 2°52.615 11 22 14.8 101120 43
2010-09-15 06:58:22 51°19.062 2°52.621 11.2 306 14.8 101120 43
2010-09-15 06:58:27 51°19.08 2°52.628 10.7 24 14.8 101120 43
2010-09-15 06:58:32 51°19.099 2°52.634 11.1 307 14.8 101120 43
2010-09-15 06:58:37 51°19.119 2°52.638 11.5 23 14.8 101120 43
2010-09-15 06:58:42 51°19.137 2°52.645 9.8 307 14.8 101120 43
2010-09-15 06:58:48 51°19.16 2°52.648 12.2 28 14.7 101100 43
2010-09-15 06:58:52 51°19.175 2°52.653 11.1 305 14.7 101100 43
2010-09-15 06:58:57 51°19.194 2°52.657 13 24 14.7 101120 42
2010-09-15 06:59:02 51°19.213 2°52.661 12.9 305 14.7 101120 42
2010-09-15 06:59:08 51°19.235 2°52.668 13.3 23 14.7 101120 42
2010-09-15 06:59:12 51°19.25 2°52.67 11.8 308 14.7 101120 42
2010-09-15 06:59:16 51°19.266 2°52.672 11 23 14.7 101130 43
2010-09-15 06:59:22 51°19.288 2°52.678 12.3 303 14.7 101130 43
2010-09-15 06:59:27 51°19.308 2°52.68 10.6 26 14.7 101110 42
2010-09-15 06:59:32 51°19.327 2°52.686 12.5 310 14.7 101110 42
2010-09-15 06:59:37 51°19.346 2°52.69 12.6 22 14.7 101110 43
2010-09-15 06:59:42 51°19.365 2°52.696 11.1 301 14.7 101110 43
2010-09-15 06:59:47 51°19.383 2°52.702 11.2 22 14.7 101110 42
2010-09-15 06:59:52 51°19.402 2°52.708 11.2 301 14.7 101110 42
2010-09-15 06:59:57 51°19.421 2°52.713 12 24 14.7 101120 43
2010-09-15 07:00:02 51°19.44 2°52.719 11 305 14.7 101120 43
2010-09-15 07:00:07 51°19.459 2°52.726 10.4 245 14.7 101110 42
2010-09-15 07:00:12 51°19.477 2°52.73 10.7 300 14.7 101110 42
2010-09-15 07:00:17 51°19.497 2°52.737 12.4 23 14.7 101100 43
2010-09-15 07:00:22 51°19.516 2°52.741 10.3 308 14.7 101100 43
2010-09-15 07:00:27 51°19.535 2°52.749 15.2 22 14.7 101120 43
2010-09-15 07:00:32 51°19.554 2°52.752 13.4 301 14.7 101120 43
2010-09-15 07:00:37 51°19.572 2°52.757 14 28 14.7 101120 42
2010-09-15 07:00:42 51°19.591 2°52.762 14.2 307 14.7 101120 42
2010-09-15 07:00:47 51°19.61 2°52.767 14.3 23 14.7 101120 42
2010-09-15 07:00:52 51°19.629 2°52.773 13.2 306 14.7 101120 42
2010-09-15 07:00:56 51°19.644 2°52.777 13.7 25 14.7 101100 42
2010-09-15 07:01:02 51°19.667 2°52.782 14.3 307 14.7 101100 42
2010-09-15 07:01:07 51°19.686 2°52.788 15.2 27 14.7 101100 42
2010-09-15 07:01:12 51°19.705 2°52.792 12.8 301 14.7 101100 42
2010-09-15 07:01:17 51°19.724 2°52.799 13.6 22 14.6 101090 42
2010-09-15 07:01:22 51°19.743 2°52.803 12.7 307 14.6 101090 42
2010-09-15 07:01:28 51°19.766 2°52.809 14.1 23 14.6 101090 42
2010-09-15 07:01:32 51°19.781 2°52.814 14.2 308 14.6 101090 42
2010-09-15 07:01:37 51°19.8 2°52.819 13.8 21 14.6 101100 42
2010-09-15 07:01:42 51°19.82 2°52.825 13 306 14.6 101100 42
2010-09-15 07:01:47 51°19.839 2°52.831 13.3 23 14.6 101100 41
2010-09-15 07:01:52 51°19.858 2°52.839 12.4 301 14.6 101100 41
2010-09-15 07:01:57 51°19.876 2°52.846 12.9 244 14.6 101090 41
2010-09-15 07:02:03 51°19.899 2°52.854 12.2 302 14.6 101090 41
2010-09-15 07:02:07 51°19.914 2°52.862 11.1 26 14.6 101090 41
2010-09-15 07:02:12 51°19.933 2°52.869 12.3 304 14.6 101090 41
2010-09-15 07:02:17 51°19.952 2°52.875 11.2 244 14.6 101110 41
2010-09-15 07:02:22 51°19.97 2°52.887 11.8 284 14.6 101110 41
2010-09-15 07:02:27 51°19.989 2°52.892 12.7 24 14.6 101120 41
2010-09-15 07:02:32 51°20.008 2°52.898 10.3 306 14.6 101120 41
2010-09-15 07:02:37 51°20.026 2°52.906 12.2 22 14.6 101110 42
2010-09-15 07:02:42 51°20.045 2°52.914 13.3 308 14.6 101110 42
2010-09-15 07:02:47 51°20.064 2°52.92 11.4 19 14.6 101090 41
2010-09-15 07:02:52 51°20.081 2°52.928 12.6 301 14.6 101090 41
2010-09-15 07:02:56 51°20.097 2°52.935 10.7 24 14.7 101090 42
2010-09-15 07:03:02 51°20.119 2°52.94 10.9 304 14.7 101090 42
2010-09-15 07:03:07 51°20.137 2°52.948 12 24 14.7 101080 42
2010-09-15 07:03:12 51°20.156 2°52.955 11.3 304 14.7 101080 42
2010-09-15 07:03:16 51°20.171 2°52.961 10.2 21 14.7 101110 41
2010-09-15 07:03:22 51°20.193 2°52.969 12.4 303 14.7 101110 41
2010-09-15 07:03:27 51°20.211 2°52.979 11.9 23 14.6 101120 42
2010-09-15 07:03:32 51°20.23 2°52.986 12.5 304 14.6 101120 42
2010-09-15 07:03:37 51°20.248 2°52.995 11.8 26 14.6 101120 41
2010-09-15 07:03:42 51°20.266 2°53.005 13.6 308 14.6 101120 41
2010-09-15 07:03:47 51°20.285 2°53.012 12.7 21 14.7 101110 41
2010-09-15 07:03:52 51°20.304 2°53.019 13.3 305 14.7 101110 41
2010-09-15 07:03:57 51°20.322 2°53.029 12.9 24 14.7 101110 42
2010-09-15 07:04:02 51°20.341 2°53.036 10.6 304 14.7 101110 42
2010-09-15 07:04:07 51°20.359 2°53.044 11.2 25 14.6 101110 41
2010-09-15 07:04:12 51°20.378 2°53.054 12.6 302 14.6 101110 41
2010-09-15 07:04:17 51°20.396 2°53.06 10.9 27 14.6 101100 41
2010-09-15 07:04:23 51°20.418 2°53.07 10.7 282 14.6 101100 41
2010-09-15 07:04:27 51°20.433 2°53.077 12.4 23 14.6 101110 41
2010-09-15 07:04:32 51°20.451 2°53.086 11.7 309 14.6 101110 41
2010-09-15 07:04:37 51°20.47 2°53.093 12.1 24 14.6 101110 41
2010-09-15 07:04:42 51°20.488 2°53.103 11.7 303 14.6 101110 41
2010-09-15 07:04:47 51°20.506 2°53.111 10.5 29 14.6 101100 41
2010-09-15 07:04:52 51°20.525 2°53.12 11.8 307 14.6 101100 41
2010-09-15 07:04:57 51°20.543 2°53.127 12.3 25 14.6 101090 42
2010-09-15 07:05:02 51°20.561 2°53.136 11.8 307 14.6 101090 42
2010-09-15 07:05:08 51°20.583 2°53.146 12.3 28 14.6 101090 41
2010-09-15 07:05:12 51°20.598 2°53.154 12.4 308 14.6 101090 41
2010-09-15 07:05:16 51°20.613 2°53.16 12.7 247 14.6 101120 41
2010-09-15 07:05:22 51°20.634 2°53.172 12.6 301 14.6 101120 41
2010-09-15 07:05:28 51°20.657 2°53.178 13.8 243 14.6 101100 40
2010-09-15 07:05:32 51°20.671 2°53.187 13.2 306 14.6 101100 40
2010-09-15 07:05:36 51°20.687 2°53.192 12.4 25 14.6 101110 41
2010-09-15 07:05:42 51°20.708 2°53.202 12.1 306 14.6 101110 41
2010-09-15 07:05:47 51°20.727 2°53.209 13 25 14.6 101100 41
2010-09-15 07:05:52 51°20.745 2°53.215 12.4 307 14.6 101100 41
2010-09-15 07:05:57 51°20.763 2°53.222 11 22 14.6 101100 41
2010-09-15 07:06:02 51°20.782 2°53.229 12.8 307 14.6 101100 41
2010-09-15 07:06:07 51°20.8 2°53.238 11.8 25 14.6 101110 40
2010-09-15 07:06:12 51°20.819 2°53.245 12.8 304 14.6 101110 40
2010-09-15 07:06:17 51°20.838 2°53.253 13.3 23 14.6 101090 40
2010-09-15 07:06:22 51°20.856 2°53.26 11.8 286 14.6 101090 40
2010-09-15 07:06:27 51°20.874 2°53.268 12.5 20 14.6 101100 41
2010-09-15 07:06:32 51°20.892 2°53.277 12.8 311 14.6 101100 41
2010-09-15 07:06:36 51°20.907 2°53.282 12.5 24 14.6 101120 41
2010-09-15 07:06:42 51°20.928 2°53.293 11.8 311 14.6 101120 41
2010-09-15 07:06:47 51°20.946 2°53.302 11.6 21 14.6 101100 40
2010-09-15 07:06:52 51°20.964 2°53.311 11.4 308 14.6 101100 40
2010-09-15 07:06:56 51°20.978 2°53.317 11 23 14.6 101100 40
2010-09-15 07:07:02 51°21 2°53.328 11.8 304 14.6 101100 40
2010-09-15 07:07:07 51°21.019 2°53.337 10.8 25 14.6 101090 40
2010-09-15 07:07:12 51°21.036 2°53.344 11.9 304 14.6 101090 40
2010-09-15 07:07:17 51°21.054 2°53.354 11.6 24 14.6 101110 41
2010-09-15 07:07:22 51°21.073 2°53.362 11 283 14.6 101110 41
2010-09-15 07:07:27 51°21.091 2°53.371 12.7 22 14.7 101110 41
2010-09-15 07:07:32 51°21.109 2°53.379 11.7 303 14.7 101110 41
2010-09-15 07:07:37 51°21.128 2°53.388 12.6 24 14.7 101110 41
2010-09-15 07:07:42 51°21.146 2°53.396 11.4 307 14.7 101110 41
2010-09-15 07:07:48 51°21.168 2°53.406 12.5 20 14.6 101100 40
2010-09-15 07:07:52 51°21.183 2°53.413 11.7 304 14.6 101100 40
2010-09-15 07:07:56 51°21.197 2°53.419 11.2 28 14.7 101110 41
2010-09-15 07:08:02 51°21.219 2°53.429 10.1 305 14.7 101110 41
2010-09-15 07:08:07 51°21.237 2°53.437 10.8 21 14.6 101090 40
2010-09-15 07:08:12 51°21.255 2°53.446 10.7 308 14.6 101090 40
2010-09-15 07:08:17 51°21.273 2°53.454 10.9 22 14.6 101120 41
2010-09-15 07:08:22 51°21.291 2°53.462 10.5 285 14.6 101120 41
2010-09-15 07:08:27 51°21.31 2°53.47 14.3 22 14.7 101090 41
2010-09-15 07:08:32 51°21.328 2°53.478 11.7 303 14.7 101090 41
2010-09-15 07:08:37 51°21.347 2°53.486 14.5 22 14.7 101100 41
2010-09-15 07:08:42 51°21.365 2°53.494 14.6 302 14.7 101100 41
2010-09-15 07:08:47 51°21.384 2°53.502 11.8 27 14.7 101090 41
2010-09-15 07:08:52 51°21.402 2°53.508 10.9 306 14.7 101090 41
2010-09-15 07:08:57 51°21.42 2°53.517 10.8 25 14.6 101090 41
2010-09-15 07:09:02 51°21.438 2°53.525 12.6 306 14.6 101090 41
2010-09-15 07:09:07 51°21.457 2°53.532 12.6 23 14.6 101090 40
2010-09-15 07:09:12 51°21.475 2°53.54 12 311 14.6 101090 40
2010-09-15 07:09:17 51°21.493 2°53.545 11.1 21 14.6 101100 40
2010-09-15 07:09:23 51°21.516 2°53.553 11.8 303 14.6 101100 40
2010-09-15 07:09:27 51°21.53 2°53.56 12.4 23 14.6 101100 41
2010-09-15 07:09:32 51°21.549 2°53.564 10.4 302 14.6 101100 41
2010-09-15 07:09:37 51°21.567 2°53.572 12.7 28 14.6 101090 41
2010-09-15 07:09:43 51°21.589 2°53.58 13.2 306 14.6 101090 41
2010-09-15 07:09:47 51°21.605 2°53.585 13.3 22 14.6 101100 40
2010-09-15 07:09:52 51°21.623 2°53.593 11.4 309 14.6 101100 40
2010-09-15 07:09:57 51°21.642 2°53.601 11.5 21 14.6 101080 40
2010-09-15 07:10:02 51°21.66 2°53.609 13.1 304 14.6 101080 40
2010-09-15 07:10:08 51°21.682 2°53.618 10.9 25 14.6 101090 41
2010-09-15 07:10:12 51°21.697 2°53.625 14.3 308 14.6 101090 41
2010-09-15 07:10:17 51°21.715 2°53.63 11.4 21 14.6 101090 40
2010-09-15 07:10:22 51°21.733 2°53.639 11.3 287 14.6 101090 40
2010-09-15 07:10:27 51°21.752 2°53.646 11.4 244 14.6 101100 40
2010-09-15 07:10:32 51°21.77 2°53.655 11.3 308 14.6 101100 40
2010-09-15 07:10:36 51°21.785 2°53.659 11.1 21 14.6 101080 41
2010-09-15 07:10:42 51°21.807 2°53.673 11.6 304 14.6 101080 41
2010-09-15 07:10:47 51°21.825 2°53.679 11.3 26 14.6 101100 40
2010-09-15 07:10:52 51°21.844 2°53.686 11 303 14.6 101100 40
2010-09-15 07:10:56 51°21.859 2°53.691 9.8 246 14.6 101100 41
2010-09-15 07:11:02 51°21.881 2°53.7 9 302 14.6 101100 41
2010-09-15 07:11:07 51°21.899 2°53.708 11.7 25 14.6 101100 40
2010-09-15 07:11:12 51°21.918 2°53.713 10.9 303 14.6 101100 40
2010-09-15 07:11:17 51°21.937 2°53.72 12.1 246 14.6 101100 41
2010-09-15 07:11:22 51°21.955 2°53.727 9.6 307 14.6 101100 41
2010-09-15 07:11:27 51°21.973 2°53.736 11.2 24 14.6 101110 41
2010-09-15 07:11:32 51°21.992 2°53.741 9.9 307 14.6 101110 41
2010-09-15 07:11:37 51°22.011 2°53.75 10.8 24 14.7 101110 40
2010-09-15 07:11:42 51°22.029 2°53.758 11.3 305 14.7 101110 40
2010-09-15 07:11:47 51°22.048 2°53.766 13.7 22 14.7 101090 41
2010-09-15 07:11:52 51°22.067 2°53.774 13.9 304 14.7 101090 41
2010-09-15 07:11:56 51°22.082 2°53.779 11.3 27 14.7 101100 41
2010-09-15 07:12:02 51°22.103 2°53.791 14.9 304 14.7 101100 41
2010-09-15 07:12:07 51°22.122 2°53.798 12.2 25 14.7 101090 42
2010-09-15 07:12:12 51°22.14 2°53.808 12.8 303 14.7 101090 42
2010-09-15 07:12:17 51°22.159 2°53.816 13.8 24 14.7 101090 41
2010-09-15 07:12:22 51°22.178 2°53.822 12.4 281 14.7 101090 41
2010-09-15 07:12:28 51°22.2 2°53.832 12.7 27 14.7 101090 40
2010-09-15 07:12:32 51°22.215 2°53.839 12.8 304 14.7 101090 40
2010-09-15 07:12:37 51°22.234 2°53.846 11.8 243 14.7 101080 41
2010-09-15 07:12:42 51°22.252 2°53.854 14 304 14.7 101080 41
2010-09-15 07:12:48 51°22.275 2°53.865 12.9 23 14.7 101100 41
2010-09-15 07:12:52 51°22.29 2°53.871 14.1 307 14.7 101100 41
2010-09-15 07:12:56 51°22.304 2°53.879 13.1 245 14.7 101070 41
2010-09-15 07:13:02 51°22.326 2°53.888 11.8 307 14.7 101070 41
2010-09-15 07:13:07 51°22.345 2°53.899 13.7 21 14.7 101080 41
2010-09-15 07:13:12 51°22.363 2°53.903 10.5 307 14.7 101080 41
2010-09-15 07:13:16 51°22.377 2°53.91 11.7 244 14.7 101090 40
2010-09-15 07:13:22 51°22.399 2°53.919 12.7 283 14.7 101090 40
2010-09-15 07:13:27 51°22.418 2°53.925 13.8 21 14.7 101100 39
2010-09-15 07:13:32 51°22.436 2°53.932 12.2 307 14.7 101100 39
2010-09-15 07:13:36 51°22.451 2°53.936 11.3 24 14.7 101100 41
2010-09-15 07:13:42 51°22.473 2°53.946 11.9 306 14.7 101100 41
2010-09-15 07:13:47 51°22.491 2°53.953 10.1 245 14.7 101100 41
2010-09-15 07:13:52 51°22.51 2°53.963 12.1 303 14.7 101100 41
2010-09-15 07:13:57 51°22.529 2°53.968 11.1 21 14.7 101100 40
2010-09-15 07:14:02 51°22.547 2°53.977 10.3 302 14.7 101100 40
2010-09-15 07:14:07 51°22.565 2°53.986 10.6 24 14.7 101110 40
2010-09-15 07:14:12 51°22.584 2°53.992 10.3 303 14.7 101110 40
2010-09-15 07:14:16 51°22.598 2°53.999 10.9 25 14.7 101100 40
2010-09-15 07:14:22 51°22.62 2°54.009 10.5 305 14.7 101100 40
2010-09-15 07:14:28 51°22.642 2°54.02 10.2 244 14.7 101110 40
2010-09-15 07:14:32 51°22.657 2°54.027 10 302 14.7 101110 40
2010-09-15 07:14:36 51°22.671 2°54.033 9 242 14.7 101110 40
2010-09-15 07:14:42 51°22.693 2°54.045 10.9 303 14.7 101110 40
2010-09-15 07:14:47 51°22.711 2°54.05 10.3 27 14.8 101110 41
2010-09-15 07:14:52 51°22.729 2°54.058 12.1 303 14.8 101110 41
2010-09-15 07:14:56 51°22.744 2°54.064 12.7 26 14.8 101110 40
2010-09-15 07:15:02 51°22.766 2°54.073 11 311 14.8 101110 40
2010-09-15 07:15:07 51°22.785 2°54.081 11.5 23 14.8 101090 42
2010-09-15 07:15:12 51°22.803 2°54.09 10.8 306 14.8 101090 42
2010-09-15 07:15:17 51°22.822 2°54.097 10.4 25 14.8 101100 41
2010-09-15 07:15:22 51°22.841 2°54.105 11 280 14.8 101100 41
2010-09-15 07:15:27 51°22.859 2°54.115 9.3 27 14.8 101090 41
2010-09-15 07:15:32 51°22.878 2°54.122 10.6 305 14.8 101090 41
2010-09-15 07:15:36 51°22.893 2°54.126 10.3 22 14.8 101100 40
2010-09-15 07:15:42 51°22.916 2°54.137 11.9 305 14.8 101100 40
2010-09-15 07:15:47 51°22.934 2°54.144 10.3 24 14.7 101080 41
2010-09-15 07:15:52 51°22.953 2°54.153 11 308 14.7 101080 41
2010-09-15 07:15:56 51°22.968 2°54.156 11.3 22 14.7 101100 40
2010-09-15 07:16:02 51°22.99 2°54.169 11.8 302 14.7 101100 40
2010-09-15 07:16:07 51°23.009 2°54.175 9.9 26 14.7 101090 39
2010-09-15 07:16:12 51°23.027 2°54.184 12.9 307 14.7 101090 39
2010-09-15 07:16:17 51°23.046 2°54.192 11.8 23 14.7 101100 40
2010-09-15 07:16:22 51°23.064 2°54.203 11.5 311 14.7 101100 40
2010-09-15 07:16:27 51°23.084 2°54.207 10.3 20 14.7 101090 41
2010-09-15 07:16:32 51°23.101 2°54.221 12.3 310 14.7 101090 41
2010-09-15 07:16:37 51°23.12 2°54.225 10 23 14.7 101080 40
2010-09-15 07:16:42 51°23.138 2°54.233 11.5 309 14.7 101080 40
2010-09-15 07:16:47 51°23.157 2°54.239 10.5 21 14.7 101080 40
2010-09-15 07:16:52 51°23.175 2°54.243 12.5 307 14.7 101080 40
2010-09-15 07:16:56 51°23.19 2°54.247 10.7 22 14.7 101080 41
2010-09-15 07:17:02 51°23.213 2°54.252 10.5 305 14.7 101080 41
2010-09-15 07:17:07 51°23.232 2°54.255 10.7 22 14.7 101090 41
2010-09-15 07:17:12 51°23.252 2°54.259 11.6 308 14.7 101090 41
2010-09-15 07:17:17 51°23.27 2°54.262 11.7 26 14.7 101090 40
2010-09-15 07:17:22 51°23.289 2°54.267 12.3 278 14.7 101090 40
2010-09-15 07:17:27 51°23.308 2°54.267 13 23 14.7 101090 40
2010-09-15 07:17:32 51°23.327 2°54.27 13.3 305 14.7 101090 40
2010-09-15 07:17:37 51°23.346 2°54.272 13.2 23 14.7 101100 40
2010-09-15 07:17:42 51°23.365 2°54.273 13.2 308 14.7 101100 40
2010-09-15 07:17:47 51°23.385 2°54.277 13.4 24 14.7 101080 40
2010-09-15 07:17:52 51°23.403 2°54.276 12.9 306 14.7 101080 40
2010-09-15 07:17:57 51°23.422 2°54.281 15.4 24 14.7 101070 40
2010-09-15 07:18:03 51°23.445 2°54.283 11.6 301 14.7 101070 40
2010-09-15 07:18:07 51°23.461 2°54.286 13 24 14.7 101090 39
2010-09-15 07:18:12 51°23.48 2°54.287 11.8 308 14.7 101090 39
2010-09-15 07:18:17 51°23.499 2°54.291 14.2 21 14.7 101080 40
2010-09-15 07:18:22 51°23.517 2°54.294 12.9 307 14.7 101080 40
2010-09-15 07:18:27 51°23.536 2°54.299 14 24 14.7 101080 39
2010-09-15 07:18:32 51°23.555 2°54.3 11.1 308 14.7 101080 39
2010-09-15 07:18:37 51°23.573 2°54.304 11 23 14.7 101080 39
2010-09-15 07:18:42 51°23.592 2°54.307 11.4 304 14.7 101080 39
2010-09-15 07:18:48 51°23.614 2°54.31 12.6 27 14.6 101070 37
2010-09-15 07:18:52 51°23.629 2°54.315 12.5 305 14.6 101070 37
2010-09-15 07:18:56 51°23.644 2°54.316 11.6 22 14.7 101070 39
2010-09-15 07:19:02 51°23.667 2°54.319 10.6 304 14.7 101070 39
2010-09-15 07:19:07 51°23.685 2°54.323 11 29 14.7 101110 39
2010-09-15 07:19:12 51°23.703 2°54.324 11.1 303 14.7 101110 39
2010-09-15 07:19:17 51°23.722 2°54.329 11.5 29 14.7 101080 39
2010-09-15 07:19:22 51°23.741 2°54.332 12.7 282 14.7 101080 39
2010-09-15 07:19:27 51°23.76 2°54.334 11.1 26 14.7 101070 40
2010-09-15 07:19:32 51°23.779 2°54.337 13.6 309 14.7 101070 40
2010-09-15 07:19:37 51°23.798 2°54.339 11.7 26 14.7 101090 40
2010-09-15 07:19:42 51°23.816 2°54.341 12.1 306 14.7 101090 40
2010-09-15 07:19:47 51°23.835 2°54.344 11 20 14.7 101080 41
2010-09-15 07:19:52 51°23.854 2°54.345 11 301 14.7 101080 41
2010-09-15 07:19:56 51°23.869 2°54.348 13.5 25 14.7 101080 40
2010-09-15 07:20:02 51°23.892 2°54.35 12.2 306 14.7 101080 40
2010-09-15 07:20:07 51°23.911 2°54.353 13 23 14.7 101080 40
2010-09-15 07:20:12 51°23.929 2°54.356 14.8 309 14.7 101080 40
2010-09-15 07:20:16 51°23.944 2°54.356 13 21 14.7 101080 39
2010-09-15 07:20:22 51°23.967 2°54.362 12.2 280 14.7 101080 39
2010-09-15 07:20:27 51°23.985 2°54.363 12.3 22 14.7 101080 40
2010-09-15 07:20:32 51°24.004 2°54.366 4.4 307 14.7 101080 40
2010-09-15 07:20:37 51°24.023 2°54.367 11.5 25 14.7 101070 40
2010-09-15 07:20:42 51°24.041 2°54.369 11.4 304 14.7 101070 40
2010-09-15 07:20:47 51°24.06 2°54.372 12.3 21 14.7 101070 39
2010-09-15 07:20:52 51°24.079 2°54.373 11.3 302 14.7 101070 39
2010-09-15 07:20:57 51°24.097 2°54.375 11.9 25 14.7 101100 39
2010-09-15 07:21:02 51°24.116 2°54.377 10.9 302 14.7 101100 39
2010-09-15 07:21:08 51°24.138 2°54.378 12.6 28 14.7 101080 39
2010-09-15 07:21:12 51°24.153 2°54.381 11.7 306 14.7 101080 39
2010-09-15 07:21:16 51°24.168 2°54.384 12.5 22 14.7 101070 39
2010-09-15 07:21:22 51°24.191 2°54.387 10.7 285 14.7 101070 39
2010-09-15 07:21:28 51°24.213 2°54.39 12.3 26 14.7 101090 38
2010-09-15 07:21:32 51°24.228 2°54.393 11.8 306 14.7 101090 38
2010-09-15 07:21:36 51°24.243 2°54.396 11.7 23 14.7 101080 39
2010-09-15 07:21:42 51°24.266 2°54.399 12.2 309 14.7 101080 39
2010-09-15 07:21:47 51°24.285 2°54.402 11.4 24 14.7 101090 40
2010-09-15 07:21:52 51°24.303 2°54.406 11.7 308 14.7 101090 40
2010-09-15 07:21:57 51°24.323 2°54.41 11.6 25 14.7 101100 40
2010-09-15 07:22:02 51°24.342 2°54.412 11.2 302 14.7 101100 40
2010-09-15 07:22:07 51°24.36 2°54.417 11.8 24 14.8 101090 40
2010-09-15 07:22:12 51°24.379 2°54.417 11.6 308 14.8 101090 40
2010-09-15 07:22:17 51°24.398 2°54.419 11.4 27 14.8 101070 40
2010-09-15 07:22:22 51°24.417 2°54.423 13.4 282 14.8 101070 40
2010-09-15 07:22:27 51°24.435 2°54.425 10.7 28 14.8 101080 40
2010-09-15 07:22:32 51°24.454 2°54.428 11.8 306 14.8 101080 40
2010-09-15 07:22:36 51°24.469 2°54.428 12.3 25 14.8 101070 40
2010-09-15 07:22:42 51°24.492 2°54.433 11.3 309 14.8 101070 40
2010-09-15 07:22:47 51°24.511 2°54.434 11.6 24 14.8 101090 40
2010-09-15 07:22:52 51°24.53 2°54.438 12.4 310 14.8 101090 40
2010-09-15 07:22:56 51°24.545 2°54.439 11.5 20 14.8 101080 40
2010-09-15 07:23:02 51°24.568 2°54.443 10.6 302 14.8 101080 40
2010-09-15 07:23:07 51°24.587 2°54.444 12 23 14.7 101080 39
2010-09-15 07:23:12 51°24.606 2°54.445 11.5 307 14.7 101080 39
2010-09-15 07:23:17 51°24.624 2°54.449 11.8 23 14.8 101080 40
2010-09-15 07:23:22 51°24.644 2°54.452 11.7 308 14.8 101080 40
2010-09-15 07:23:28 51°24.666 2°54.455 10.7 21 14.8 101090 40
2010-09-15 07:23:32 51°24.681 2°54.456 11 301 14.8 101090 40
2010-09-15 07:23:37 51°24.7 2°54.459 10.4 29 14.8 101070 40
2010-09-15 07:23:42 51°24.719 2°54.462 12.6 305 14.8 101070 40
2010-09-15 07:23:47 51°24.739 2°54.464 12.2 27 14.8 101090 40
2010-09-15 07:23:52 51°24.757 2°54.469 10.7 303 14.8 101090 40
2010-09-15 07:23:56 51°24.774 2°54.474 12.6 23 14.8 101080 39
2010-09-15 07:24:02 51°24.796 2°54.474 11.5 309 14.8 101080 39
2010-09-15 07:24:07 51°24.815 2°54.479 11.8 22 14.8 101080 39
2010-09-15 07:24:12 51°24.834 2°54.478 10.9 305 14.8 101080 39
2010-09-15 07:24:16 51°24.849 2°54.481 12.5 23 14.8 101090 40
2010-09-15 07:24:22 51°24.872 2°54.484 12.9 281 14.8 101090 40
2010-09-15 07:24:27 51°24.89 2°54.484 11.6 22 14.8 101100 39
2010-09-15 07:24:32 51°24.908 2°54.489 11.9 308 14.8 101100 39
2010-09-15 07:24:37 51°24.927 2°54.49 11.4 23 14.8 101070 39
2010-09-15 07:24:42 51°24.946 2°54.493 12.9 304 14.8 101070 39
2010-09-15 07:24:47 51°24.964 2°54.496 10.7 24 14.8 101080 39
2010-09-15 07:24:52 51°24.982 2°54.497 11.9 307 14.8 101080 39
2010-09-15 07:24:57 51°25.001 2°54.499 11.9 22 14.8 101090 40
2010-09-15 07:25:02 51°25.019 2°54.503 11.7 303 14.8 101090 40
2010-09-15 07:25:07 51°25.038 2°54.505 12.6 23 14.8 101090 39
2010-09-15 07:25:12 51°25.056 2°54.509 11.6 309 14.8 101090 39
2010-09-15 07:25:16 51°25.071 2°54.51 10.9 23 14.8 101070 39
2010-09-15 07:25:22 51°25.093 2°54.511 11.1 302 14.8 101070 39
2010-09-15 07:25:27 51°25.111 2°54.515 11.2 29 14.8 101080 39
2010-09-15 07:25:32 51°25.13 2°54.518 11.9 308 14.8 101080 39
2010-09-15 07:25:36 51°25.144 2°54.52 12.3 21 14.8 101080 39
2010-09-15 07:25:42 51°25.167 2°54.523 11.8 306 14.8 101080 39
2010-09-15 07:25:47 51°25.185 2°54.527 11.8 22 14.9 101080 40
2010-09-15 07:25:52 51°25.203 2°54.53 10.8 302 14.9 101080 40
2010-09-15 07:25:57 51°25.222 2°54.533 11.7 25 14.9 101050 40
2010-09-15 07:26:02 51°25.24 2°54.538 12.7 302 14.9 101050 40
2010-09-15 07:26:08 51°25.262 2°54.537 11.3 23 14.9 101060 40
2010-09-15 07:26:12 51°25.277 2°54.539 11.4 308 14.9 101060 40
2010-09-15 07:26:17 51°25.295 2°54.54 12 21 14.8 101070 40
2010-09-15 07:26:22 51°25.314 2°54.542 11.3 285 14.8 101070 40
2010-09-15 07:26:27 51°25.333 2°54.545 10.1 23 14.8 101070 40
2010-09-15 07:26:32 51°25.352 2°54.547 11.8 306 14.8 101070 40
2010-09-15 07:26:37 51°25.37 2°54.552 12.3 27 14.8 101070 40
2010-09-15 07:26:42 51°25.389 2°54.552 12.2 302 14.8 101070 40
2010-09-15 07:26:47 51°25.408 2°54.557 14.5 24 14.8 101080 38
2010-09-15 07:26:52 51°25.426 2°54.555 10.1 306 14.8 101080 38
2010-09-15 07:26:57 51°25.445 2°54.561 14.1 25 14.8 101080 39
2010-09-15 07:27:02 51°25.464 2°54.561 11.5 307 14.8 101080 39
2010-09-15 07:27:07 51°25.482 2°54.566 12.3 22 14.8 101090 39
2010-09-15 07:27:12 51°25.501 2°54.568 12.8 303 14.8 101090 39
2010-09-15 07:27:17 51°25.52 2°54.571 11.4 24 14.8 101080 40
2010-09-15 07:27:22 51°25.538 2°54.573 13.4 304 14.8 101080 40
2010-09-15 07:27:27 51°25.556 2°54.573 12.1 23 14.8 101050 40
2010-09-15 07:27:32 51°25.575 2°54.575 12.1 308 14.8 101050 40
2010-09-15 07:27:36 51°25.59 2°54.577 11.8 25 14.8 101070 41
2010-09-15 07:27:42 51°25.612 2°54.58 11.8 306 14.8 101070 41
2010-09-15 07:27:48 51°25.634 2°54.581 11.4 21 14.8 101080 40
2010-09-15 07:27:52 51°25.649 2°54.585 13 301 14.8 101080 40
2010-09-15 07:27:56 51°25.663 2°54.585 11.1 24 14.8 101070 40
2010-09-15 07:28:02 51°25.685 2°54.591 13.7 306 14.8 101070 40
2010-09-15 07:28:07 51°25.703 2°54.593 10.4 22 14.7 101080 40
2010-09-15 07:28:12 51°25.721 2°54.596 11.5 305 14.7 101080 40
2010-09-15 07:28:17 51°25.739 2°54.6 11.3 24 14.7 101050 39
2010-09-15 07:28:22 51°25.758 2°54.601 10.2 284 14.7 101050 39
2010-09-15 07:28:27 51°25.777 2°54.606 11.3 21 14.7 101080 40
2010-09-15 07:28:32 51°25.795 2°54.608 11.1 304 14.7 101080 40
2010-09-15 07:28:36 51°25.81 2°54.611 10 23 14.7 101090 40
2010-09-15 07:28:42 51°25.833 2°54.615 12.6 302 14.7 101090 40
2010-09-15 07:28:47 51°25.851 2°54.62 11.9 28 14.7 101090 40
2010-09-15 07:28:52 51°25.87 2°54.621 11.5 304 14.7 101090 40
2010-09-15 07:28:56 51°25.885 2°54.622 12.1 26 14.7 101090 41
2010-09-15 07:29:02 51°25.907 2°54.627 12.7 304 14.7 101090 41
2010-09-15 07:29:07 51°25.926 2°54.627 11.3 24 14.7 101080 40
2010-09-15 07:29:12 51°25.945 2°54.629 10 308 14.7 101080 40
2010-09-15 07:29:17 51°25.964 2°54.632 12.7 244 14.7 101090 41
2010-09-15 07:29:22 51°25.983 2°54.635 12.2 304 14.7 101090 41
2010-09-15 07:29:27 51°26.002 2°54.637 10.5 23 14.8 101080 40
2010-09-15 07:29:32 51°26.021 2°54.639 10.9 302 14.8 101080 40
2010-09-15 07:29:36 51°26.036 2°54.642 10.8 23 14.8 101090 40
2010-09-15 07:29:42 51°26.058 2°54.644 10.6 307 14.8 101090 40
2010-09-15 07:29:48 51°26.08 2°54.648 11.4 245 14.7 101090 40
2010-09-15 07:29:52 51°26.095 2°54.65 10.3 302 14.7 101090 40
2010-09-15 07:29:56 51°26.111 2°54.653 11 246 14.8 101080 41
2010-09-15 07:30:02 51°26.134 2°54.657 9.9 305 14.8 101080 41
2010-09-15 07:30:07 51°26.153 2°54.66 11 25 14.8 101090 40
2010-09-15 07:30:12 51°26.172 2°54.665 11.1 302 14.8 101090 40
2010-09-15 07:30:16 51°26.187 2°54.665 11.1 27 14.7 101090 39
2010-09-15 07:30:22 51°26.21 2°54.669 10.2 280 14.7 101090 39
2010-09-15 07:30:27 51°26.229 2°54.673 11.7 22 14.7 101070 40
2010-09-15 07:30:32 51°26.248 2°54.675 11.3 306 14.7 101070 40
2010-09-15 07:30:37 51°26.267 2°54.677 12.3 24 14.8 101070 41
2010-09-15 07:30:42 51°26.286 2°54.68 10.8 309 14.8 101070 41
2010-09-15 07:30:47 51°26.304 2°54.682 11.2 24 14.8 101080 40
2010-09-15 07:30:52 51°26.323 2°54.686 12.9 304 14.8 101080 40
2010-09-15 07:30:56 51°26.338 2°54.687 11.5 21 14.8 101080 41
2010-09-15 07:31:02 51°26.361 2°54.692 13 307 14.8 101080 41
2010-09-15 07:31:07 51°26.38 2°54.695 12 27 14.8 101060 41
2010-09-15 07:31:12 51°26.398 2°54.698 13.1 307 14.8 101060 41
2010-09-15 07:31:16 51°26.413 2°54.699 12.2 22 14.8 101090 41
2010-09-15 07:31:22 51°26.435 2°54.704 11.9 303 14.8 101090 41
2010-09-15 07:31:27 51°26.454 2°54.706 12.4 23 14.8 101060 42
2010-09-15 07:31:32 51°26.472 2°54.71 15.6 308 14.8 101060 42
2010-09-15 07:31:36 51°26.487 2°54.714 14.1 22 14.8 101040 42
2010-09-15 07:31:42 51°26.509 2°54.717 13.5 305 14.8 101040 42
2010-09-15 07:31:47 51°26.527 2°54.721 16.1 24 14.8 101060 41
2010-09-15 07:31:52 51°26.546 2°54.721 13.5 302 14.8 101060 41
2010-09-15 07:31:57 51°26.564 2°54.726 12.8 26 14.8 101090 41
2010-09-15 07:32:02 51°26.583 2°54.727 12.5 306 14.8 101090 41
2010-09-15 07:32:07 51°26.602 2°54.732 12.5 25 14.8 101050 39
2010-09-15 07:32:12 51°26.621 2°54.734 13.2 302 14.8 101050 39
2010-09-15 07:32:16 51°26.637 2°54.735 11.3 26 14.7 101060 40
2010-09-15 07:32:22 51°26.66 2°54.74 12 286 14.7 101060 40
2010-09-15 07:32:28 51°26.683 2°54.746 11 25 14.7 101070 41
2010-09-15 07:32:32 51°26.698 2°54.747 10.7 305 14.7 101070 41
2010-09-15 07:32:36 51°26.713 2°54.748 12.8 22 14.7 101070 41
2010-09-15 07:32:42 51°26.735 2°54.753 12.5 307 14.7 101070 41
2010-09-15 07:32:47 51°26.755 2°54.755 10.7 24 14.7 101060 40
2010-09-15 07:32:52 51°26.774 2°54.759 11.5 307 14.7 101060 40
2010-09-15 07:32:56 51°26.789 2°54.761 11.8 26 14.7 101090 40
2010-09-15 07:33:02 51°26.812 2°54.765 10.6 303 14.7 101090 40
2010-09-15 07:33:07 51°26.831 2°54.767 11.1 23 14.8 101070 41
2010-09-15 07:33:12 51°26.851 2°54.767 11.6 303 14.8 101070 41
2010-09-15 07:33:17 51°26.87 2°54.772 10.2 24 14.7 101070 41
2010-09-15 07:33:22 51°26.889 2°54.773 11.2 303 14.7 101070 41
2010-09-15 07:33:27 51°26.908 2°54.774 11 26 14.7 101080 40
2010-09-15 07:33:32 51°26.927 2°54.778 10.8 305 14.7 101080 40
2010-09-15 07:33:36 51°26.943 2°54.778 12.5 20 14.7 101070 40
2010-09-15 07:33:42 51°26.966 2°54.78 11.2 301 14.7 101070 40
2010-09-15 07:33:47 51°26.985 2°54.784 11.4 22 14.7 101080 40
2010-09-15 07:33:52 51°27.004 2°54.786 12.4 311 14.7 101080 40
2010-09-15 07:33:56 51°27.02 2°54.787 10.7 24 14.6 101070 41
2010-09-15 07:34:02 51°27.043 2°54.792 10 307 14.6 101070 41
2010-09-15 07:34:07 51°27.063 2°54.794 10.4 24 14.6 101080 40
2010-09-15 07:34:12 51°27.082 2°54.798 11.5 306 14.6 101080 40
2010-09-15 07:34:16 51°27.097 2°54.798 11.7 26 14.6 101080 40
2010-09-15 07:34:22 51°27.12 2°54.802 9 281 14.6 101080 40
2010-09-15 07:34:27 51°27.14 2°54.805 12.3 21 14.7 101070 41
2010-09-15 07:34:32 51°27.159 2°54.81 11.5 307 14.7 101070 41
2010-09-15 07:34:37 51°27.178 2°54.813 12.2 25 14.6 101090 41
2010-09-15 07:34:42 51°27.198 2°54.817 11.6 302 14.6 101090 41
2010-09-15 07:34:48 51°27.221 2°54.82 13 244 14.6 101090 39
2010-09-15 07:34:52 51°27.236 2°54.825 14.5 308 14.6 101090 39